Theta_e
315 314 313 314 314 313 313 312 312 312 314 315 317 320 323 322 320 314 306 312 318 327 331 321 319 315 312 306 306 302 293 289 292 293 295 299 299 303 303 300 302 302 311 315 324
315 315 315 314 315 314 313 312 312 311 312 314 316 318 322 321 313 308 316 322 326 327 320 313 310 310 304 304 303 298 291 293 299 298 297 300 301 302 302 300 299 304 316 322 326
316 315 315 315 314 314 313 313 312 311 311 311 314 317 318 318 304 302 318 324 326 328 322 318 314 309 302 301 300 298 293 299 302 304 304 301 301 304 300 299 299 300 304 311 321
313 314 314 314 313 313 313 313 312 312 311 311 311 314 317 312 289 309 325 326 325 325 318 314 309 303 299 299 302 295 300 301 303 305 303 299 302 301 302 303 305 305 306 306 309
313 313 312 312 312 312 313 312 312 312 311 311 311 312 311 302 298 310 320 327 318 321 316 311 305 304 298 299 299 296 298 302 303 304 302 302 299 300 301 306 305 307 306 305 305
313 312 311 311 311 311 311 311 311 311 310 310 310 311 305 295 307 310 309 320 317 318 314 311 307 307 302 299 299 300 300 300 301 301 301 299 299 299 300 304 304 303 304 304 304
311 311 310 310 310 310 310 310 310 310 310 310 310 307 302 301 307 309 313 319 319 319 313 314 313 307 304 299 303 301 296 297 298 300 299 300 296 295 301 303 301 303 301 303 303
310 309 309 309 309 309 309 309 309 309 310 310 310 305 297 311 313 308 310 312 319 319 316 317 316 309 303 301 298 296 294 289 297 299 300 299 291 298 301 301 299 300 301 302 302
309 309 308 308 308 308 308 309 309 310 310 309 303 299 295 311 305 309 307 307 309 314 317 318 314 306 305 296 290 290 284 288 292 299 298 296 290 297 301 298 297 298 299 299 301
309 308 308 308 308 308 308 309 309 308 305 305 302 294 298 299 305 307 307 306 307 309 309 310 307 301 299 295 286 286 286 286 288 291 294 292 291 297 299 296 297 298 298 298 299
308 308 308 308 308 308 304 297 290 289 297 290 292 292 300 305 309 305 305 303 306 305 298 304 295 293 296 297 293 290 288 285 288 293 289 288 288 292 294 293 293 295 297 298 299
308 308 307 307 307 307 301 292 293 295 287 294 295 296 299 304 299 302 305 297 300 297 299 297 292 297 299 299 294 292 287 285 289 291 288 287 287 291 294 294 295 296 297 297 297
307 307 307 307 307 301 295 295 302 301 288 290 294 294 297 303 298 299 301 300 299 296 295 292 294 298 295 293 291 288 285 285 286 288 287 285 284 288 291 293 294 295 297 298 298
306 307 307 307 300 299 294 302 303 302 280 284 290 293 298 302 296 304 303 302 298 294 295 293 295 294 292 290 290 285 289 289 287 284 279 285 277 283 287 288 290 291 292 293 295
306 306 307 307 300 295 299 303 302 297 262 287 287 300 300 297 297 298 305 301 294 294 293 290 290 292 290 290 291 287 291 288 286 282 278 280 278 282 285 286 289 288 289 291 292
307 307 308 305 303 301 304 301 298 273 268 284 289 287 289 295 296 298 299 302 302 294 294 291 296 293 291 293 293 292 287 285 283 280 271 278 279 279 282 285 287 289 290 290 291
308 309 305 305 296 303 301 296 273 267 285 283 284 286 291 291 292 294 293 292 290 285 286 289 289 292 294 288 291 287 282 272 270 269 271 281 279 281 286 289 289 289 288 291 293
309 306 302 304 304 301 294 280 271 281 281 287 288 289 289 291 292 293 290 286 289 288 284 281 281 288 291 289 286 284 282 274 268 269 273 280 277 282 288 289 289 290 290 293 294
305 301 300 303 303 297 288 275 277 283 285 284 289 286 287 290 291 290 289 287 289 288 283 279 279 290 291 292 290 285 277 283 275 274 270 276 279 283 287 287 289 291 293 293 295
294 294 298 304 301 296 284 280 285 288 285 287 285 287 284 288 288 287 288 290 288 290 290 284 279 290 291 293 292 286 288 277 272 267 269 274 275 277 282 285 288 289 290 292 296
291 288 296 303 300 287 280 282 286 289 290 290 285 285 285 286 287 285 286 289 290 289 290 287 283 286 290 287 285 284 281 280 279 275 270 270 276 283 283 286 287 289 291 293 295
289 279 297 300 284 285 282 287 290 290 295 293 291 289 286 288 286 286 285 287 292 291 286 289 284 283 285 288 290 287 284 281 272 271 271 275 275 287 287 288 288 291 293 296 297
287 286 296 295 280 283 289 289 290 291 292 292 289 291 291 286 284 286 286 292 293 291 288 289 281 272 281 286 289 284 285 282 280 276 269 270 276 287 286 288 291 295 298 301 300
286 281 288 289 290 288 286 287 289 293 291 292 290 291 289 287 289 286 287 293 293 293 298 293 283 277 274 278 282 276 283 283 283 274 274 275 278 284 288 289 293 295 297 297 300
289 286 291 285 286 290 292 292 289 288 292 293 290 291 290 286 287 286 289 290 292 297 292 289 279 281 283 285 285 283 283 283 280 281 275 278 281 285 289 291 293 297 297 296 297
290 288 292 290 293 290 291 289 290 290 291 290 289 291 291 288 288 286 288 287 287 289 289 288 279 282 278 284 285 282 285 284 284 285 284 285 284 292 294 295 298 295 293 293 292
296 297 292 287 286 287 288 289 290 292 295 296 294 291 290 291 292 292 292 291 290 288 286 287 281 280 274 283 283 278 283 284 285 285 287 283 288 294 295 298 297 292 291 290 290
Wind_Speed
16 16 18 15 17 15 13 14 17 15 20 22 23 22 15 10 10 5 15 9 12 24 9 5 8 6 4 4 4 4 3 5 6 7 4 0 2 3 1 5 4 4 6 4 12
19 19 18 19 17 17 16 15 16 16 16 20 21 22 22 9 8 16 15 19 21 17 7 9 9 8 4 6 4 5 5 9 6 5 1 3 1 4 5 6 4 4 4 5 14
21 20 21 19 19 17 18 17 16 18 17 19 19 20 20 4 4 11 18 31 23 20 13 5 5 7 6 4 5 5 5 4 4 3 1 2 5 1 3 5 2 2 7 4 2
20 21 20 19 20 20 18 19 19 17 17 18 21 19 21 6 8 2 6 13 26 16 13 5 4 8 6 8 5 3 6 4 5 4 1 2 3 4 4 8 4 4 4 3 2
20 20 20 20 19 19 21 18 19 19 18 17 19 18 11 6 10 7 12 8 20 15 17 11 7 6 7 8 3 4 2 4 4 7 4 2 6 6 6 12 3 6 6 7 5
23 22 21 21 21 20 19 21 20 19 17 17 18 17 8 11 6 9 9 3 14 16 8 11 8 7 6 5 12 4 9 7 5 4 3 5 6 4 4 8 8 6 8 8 8
22 22 21 20 19 20 20 19 21 18 18 18 17 10 10 12 4 5 7 5 14 13 9 8 6 8 5 3 5 2 1 1 5 4 5 3 11 10 6 9 11 14 8 9 10
22 21 20 19 18 19 18 19 21 20 19 18 16 9 9 7 14 9 4 3 7 7 5 9 5 6 4 3 4 7 2 3 4 7 5 7 17 2 9 10 12 11 13 10 9
22 20 19 17 18 18 18 21 21 21 19 17 8 8 6 4 6 12 5 3 5 4 5 6 7 2 3 6 3 1 4 4 6 7 5 9 2 4 7 8 10 11 10 10 10
22 20 19 17 18 19 19 20 21 17 7 5 5 2 8 6 6 7 6 5 3 6 6 8 8 6 5 8 9 6 5 3 5 2 3 7 7 13 9 4 10 12 11 11 11
20 19 18 19 19 18 9 5 6 4 4 7 5 6 3 4 4 8 5 5 1 4 8 7 2 10 12 7 2 6 5 2 3 3 3 6 5 14 9 6 9 13 15 14 13
22 21 19 19 18 16 3 1 4 1 7 11 15 15 14 9 7 13 11 6 6 8 4 3 3 8 12 10 4 2 2 3 5 1 1 5 10 16 13 11 13 17 16 15 9
22 21 20 18 16 3 1 5 1 2 6 4 6 10 5 5 10 14 15 4 4 6 5 4 5 10 10 8 6 3 4 3 3 4 3 7 8 8 3 5 8 9 13 13 14
22 22 21 20 8 2 4 4 1 1 3 4 6 2 4 4 5 8 9 5 3 8 7 3 3 9 9 5 6 4 3 3 3 3 2 5 7 7 5 8 6 8 7 9 12
24 25 23 18 4 4 3 3 3 1 2 6 3 6 2 7 15 9 3 3 6 6 6 3 2 8 4 5 5 3 5 5 4 4 3 2 2 10 3 4 5 4 6 9 9
26 28 28 9 1 5 4 3 1 6 4 4 4 4 6 9 5 7 4 1 5 7 9 3 2 3 2 4 4 8 6 7 5 3 2 3 4 8 2 2 5 6 9 10 11
28 27 5 2 2 7 4 2 4 2 4 4 5 2 10 16 9 9 7 8 5 6 4 4 3 2 4 8 5 5 6 3 5 4 5 3 2 10 9 7 4 5 6 8 9
22 10 6 2 4 6 3 4 1 3 3 2 5 11 6 16 14 8 6 5 4 5 4 4 2 4 1 4 6 1 6 6 5 2 4 1 6 7 6 5 6 4 2 7 9
9 4 4 5 3 3 3 2 3 2 2 4 10 14 9 8 6 5 4 4 4 1 6 5 3 1 3 4 6 4 2 3 6 4 3 3 8 9 2 5 6 7 9 8 8
2 3 4 4 4 3 2 4 3 2 2 7 4 4 9 6 5 4 4 1 4 2 2 4 5 2 2 4 4 4 8 4 4 2 3 4 5 5 3 3 5 10 10 9 8
3 3 3 4 3 4 2 3 4 6 4 6 3 9 7 6 7 4 5 1 2 3 3 5 4 2 4 3 5 3 1 5 4 2 4 1 6 6 4 3 5 9 8 8 8
2 3 2 2 3 1 2 9 6 6 1 4 10 9 5 5 4 3 6 2 6 6 4 1 5 4 2 1 3 3 5 5 5 4 1 1 9 3 6 7 3 8 7 9 8
2 2 3 3 4 4 5 5 4 5 4 2 4 4 4 5 5 4 3 2 7 4 6 3 2 3 2 2 2 3 4 5 5 3 5 6 8 2 5 5 6 9 11 11 10
2 5 4 3 1 3 3 4 3 4 5 2 5 5 5 5 5 4 3 4 6 5 7 6 3 5 6 3 4 3 4 6 5 3 4 9 7 12 14 13 13 13 6 8 10
3 2 1 5 5 10 8 6 12 6 5 7 5 6 5 4 4 3 3 4 5 7 3 4 3 2 3 4 2 5 5 8 11 9 7 3 6 12 12 14 17 3 6 10 10
2 3 2 4 7 6 9 9 13 7 6 6 8 8 9 3 2 7 6 3 2 3 3 3 1 1 3 4 6 5 7 8 9 11 13 19 23 23 19 13 5 3 8 9 10
3 2 2 5 6 3 4 5 5 3 9 8 5 7 12 6 2 5 4 4 5 6 3 3 4 3 4 4 3 6 9 13 7 5 14 13 21 13 9 7 4 3 5 8 10
Wind_Direction
325 319 321 317 317 318 321 321 319 316 310 306 313 317 263 252 270 250 242 233 207 246 241 154 167 176 127 212 173 134 130 195 211 177 230 99 63 269 301 261 295 264 164 259 128
320 315 313 314 312 311 312 310 312 312 307 308 308 311 324 249 260 256 235 230 234 239 225 163 174 146 174 192 197 162 181 203 197 196 218 331 8 338 358 343 308 327 349 94 129
322 319 312 310 308 305 305 305 307 302 306 303 308 307 310 196 283 245 240 223 224 227 212 174 140 141 180 162 204 182 204 193 213 199 353 337 331 262 339 301 182 291 305 34 74
317 320 315 312 308 305 299 300 300 298 297 301 299 303 310 189 228 201 194 218 212 207 204 164 172 158 166 194 199 197 203 185 215 256 200 231 299 275 206 233 169 272 296 335 89
316 317 319 312 306 301 300 298 295 295 295 296 296 296 317 207 240 289 314 286 191 192 203 187 160 162 172 182 153 202 242 208 230 263 236 270 246 232 256 266 162 284 308 303 311
319 317 315 310 308 307 298 297 294 292 294 293 289 287 274 234 242 264 266 216 182 183 182 165 181 176 178 201 192 212 190 242 255 230 240 222 234 195 239 266 290 186 258 276 284
320 317 319 312 307 303 302 295 295 294 292 286 282 278 258 241 221 2 214 205 184 171 170 182 172 175 163 138 189 174 133 164 221 215 230 193 261 228 221 255 265 279 202 239 244
328 325 317 315 309 304 302 296 295 287 282 280 277 284 249 239 249 311 302 179 177 172 190 179 150 154 163 135 68 128 98 174 244 186 233 159 251 324 220 221 245 262 280 266 224
328 322 319 316 313 312 307 305 296 285 281 273 280 241 255 266 212 239 232 216 155 160 199 198 187 165 154 141 89 161 174 187 294 206 189 193 335 258 241 215 242 254 252 259 280
324 326 324 322 317 314 311 304 288 290 288 248 247 265 250 226 198 159 180 251 148 140 147 175 173 180 155 174 190 162 178 207 199 186 173 250 279 275 275 247 244 260 266 260 250
329 324 321 318 317 318 338 344 10 9 202 203 202 241 139 228 140 188 153 130 211 169 188 184 145 187 168 157 69 129 126 124 245 261 322 251 253 271 261 278 256 252 255 255 257
331 323 318 316 317 316 92 279 218 328 288 245 248 252 277 300 165 199 138 154 192 178 138 130 152 163 164 163 165 97 128 251 281 284 256 313 288 272 260 247 237 249 255 250 250
329 328 323 324 322 355 238 233 48 166 241 251 204 216 216 291 177 179 159 174 183 147 170 150 131 143 147 140 141 169 168 208 221 336 65 325 278 254 298 256 265 263 265 265 254
327 321 318 317 306 181 281 307 135 74 273 193 173 110 216 261 159 138 168 140 133 154 152 117 137 134 127 133 134 161 192 186 79 64 262 24 294 296 297 299 243 252 269 265 263
324 317 308 297 270 249 174 90 122 109 355 139 154 137 247 209 132 182 136 93 153 134 114 181 137 147 134 157 129 148 98 96 95 88 26 347 137 271 321 335 351 101 334 328 319
321 313 312 301 172 227 124 231 189 46 277 135 115 69 297 156 122 121 123 247 122 84 90 148 109 78 122 73 108 137 76 49 54 79 17 249 159 285 281 347 334 352 1 12 10
318 321 355 294 357 98 126 160 44 126 7 111 119 175 164 144 124 125 164 142 131 125 125 60 34 23 104 80 43 87 75 345 357 17 221 141 119 251 295 298 297 357 20 18 18
323 351 329 15 99 132 88 49 85 296 214 151 150 190 115 130 129 143 125 84 46 103 107 137 168 171 151 132 161 108 140 160 207 183 282 244 231 253 276 308 102 98 356 16 14
13 336 4 24 92 57 54 30 257 314 329 315 144 113 110 97 99 117 69 114 179 174 116 124 2 89 121 135 131 177 109 169 101 26 37 237 286 305 52 61 40 20 17 359 353
40 358 15 343 7 329 76 266 259 242 254 219 79 58 116 105 97 98 107 184 117 91 62 186 88 107 130 103 41 135 153 78 7 140 263 283 275 243 262 42 18 359 346 332 331
40 50 259 315 351 35 340 267 311 279 233 30 67 97 93 108 98 83 147 40 104 138 57 129 95 181 148 213 155 106 73 51 104 117 157 294 264 213 196 68 356 318 305 295 296
52 43 300 24 18 319 295 322 332 327 328 17 65 75 73 90 94 100 168 149 165 143 138 75 112 120 169 327 182 146 162 136 123 242 55 122 274 243 176 181 258 300 309 313 301
360 258 326 70 20 345 322 329 305 340 354 49 107 83 92 119 108 116 175 129 148 128 156 180 73 76 25 14 16 175 180 132 111 89 206 139 261 223 292 279 313 324 330 330 321
40 4 329 24 229 293 335 352 294 222 287 23 90 77 101 60 32 129 115 7 144 126 139 90 90 151 177 189 135 184 184 168 145 142 186 234 295 293 305 315 315 327 0 313 315
25 10 4 335 343 337 357 358 43 36 22 27 51 71 105 96 73 95 121 99 43 128 75 99 103 110 252 239 187 197 196 187 203 202 189 273 238 270 282 301 304 324 327 334 336
27 349 348 288 305 3 352 3 40 12 42 17 70 50 58 121 156 179 130 82 142 50 90 9 110 102 296 266 215 237 222 205 213 224 253 264 279 276 282 280 286 331 352 335 345
339 295 311 302 337 355 352 333 346 9 24 43 38 72 48 346 76 98 65 100 143 125 108 88 112 44 293 338 351 300 224 208 199 199 219 243 251 285 289 295 285 335 346 349 351